| time (UTC) | temp C | wind direction | speed KPH | gust KPH | rain 1hr cm | rain 24hr cm | rain mn cm | humidity % | barometer mb |
| 20260508075348 | 8 | 197 | 4.8 | 11.3 | 0.00 | 0.00 | 0.00 | 75 | 1011.4 |
| 20260508074846 | 8 | 253 | 4.8 | 16.1 | 0.00 | 0.00 | 0.00 | 74 | 1011.1 |
| 20260508074343 | 8 | 223 | 3.2 | 8.0 | 0.00 | 0.00 | 0.00 | 74 | 1011.1 |
| 20260508073840 | 8 | 199 | 3.2 | 16.1 | 0.00 | 0.00 | 0.00 | 73 | 1011.3 |
| 20260508073338 | 8 | 220 | 3.2 | 16.1 | 0.00 | 0.00 | 0.00 | 72 | 1011.4 |
| 20260508072834 | 8 | 262 | 4.8 | 16.1 | 0.00 | 0.00 | 0.00 | 72 | 1011.4 |
| 20260508072331 | 8 | 244 | 4.8 | 16.1 | 0.00 | 0.00 | 0.00 | 71 | 1011.0 |
| 20260508071828 | 8 | 249 | 6.4 | 19.3 | 0.00 | 0.00 | 0.00 | 70 | 1011.2 |
| 20260508071326 | 9 | 249 | 12.9 | 20.9 | 0.00 | 0.00 | 0.00 | 69 | 1011.5 |
| 20260508070824 | 9 | 282 | 6.4 | 33.8 | 0.00 | 0.00 | 0.00 | 68 | 1011.4 |
| 20260508070322 | 9 | 164 | 1.6 | 11.3 | 0.00 | 0.00 | 0.00 | 67 | 1011.2 |
| 20260508065819 | 9 | 245 | 6.4 | 20.9 | 0.00 | 0.00 | 0.00 | 65 | 1011.3 |
| 20260508065317 | 9 | 256 | 8.0 | 24.1 | 0.00 | 0.00 | 0.00 | 65 | 1011.4 |
| 20260508064814 | 9 | 250 | 6.4 | 14.5 | 0.00 | 0.00 | 0.00 | 64 | 1011.3 |
| 20260508064312 | 9 | 265 | 6.4 | 16.1 | 0.00 | 0.00 | 0.00 | 64 | 1011.4 |
| 20260508063809 | 9 | 258 | 6.4 | 14.5 | 0.00 | 0.00 | 0.00 | 64 | 1011.2 |
| 20260508063307 | 9 | 223 | 3.2 | 11.3 | 0.00 | 0.00 | 0.00 | 63 | 1011.3 |
| 20260508062804 | 9 | 265 | 6.4 | 14.5 | 0.00 | 0.00 | 0.00 | 64 | 1011.3 |
| 20260508062305 | 9 | 254 | 6.4 | 8.0 | 0.00 | 0.00 | 0.00 | 64 | 1011.4 |
| 20260508061758 | 8 | 226 | 1.6 | 9.7 | 0.00 | 0.00 | 0.00 | 64 | 1011.5 |
| 20260508061255 | 8 | 256 | 3.2 | 6.4 | 0.00 | 0.00 | 0.00 | 65 | 1011.2 |
| 20260508060752 | 8 | 205 | 4.8 | 9.7 | 0.00 | 0.00 | 0.00 | 64 | 1011.1 |
| 20260508060250 | 8 | 294 | 3.2 | 17.7 | 0.00 | 0.00 | 0.00 | 64 | 1011.4 |
| 20260508055745 | 8 | 261 | 3.2 | 8.0 | 0.00 | 0.00 | 0.00 | 65 | 1011.5 |
| 20260508055242 | 8 | 213 | 3.2 | 6.4 | 0.00 | 0.00 | 0.00 | 65 | 1011.5 |
| 20260508054739 | 8 | 181 | 1.6 | 8.0 | 0.00 | 0.00 | 0.00 | 65 | 1011.5 |
| 20260508054237 | 8 | 308 | 0.0 | 8.0 | 0.00 | 0.00 | 0.00 | 65 | 1011.6 |
| 20260508053734 | 8 | 232 | 3.2 | 8.0 | 0.00 | 0.00 | 0.00 | 65 | 1011.5 |
| 20260508053231 | 8 | 232 | 0.0 | 6.4 | 0.00 | 0.00 | 0.00 | 64 | 1011.6 |
| 20260508052728 | 9 | 290 | 0.0 | 6.4 | 0.00 | 0.00 | 0.00 | 64 | 1011.7 |
| 20260508052225 | 9 | 273 | 8.0 | 9.7 | 0.00 | 0.00 | 0.00 | 64 | 1011.7 |
| 20260508051721 | 9 | 255 | 3.2 | 9.7 | 0.00 | 0.00 | 0.00 | 63 | 1011.8 |
| 20260508051217 | 9 | 211 | 0.0 | 8.0 | 0.00 | 0.00 | 0.00 | 63 | 1011.7 |
| 20260508050713 | 9 | 275 | 6.4 | 8.0 | 0.00 | 0.00 | 0.00 | 63 | 1011.9 |
| 20260508050211 | 9 | 265 | 3.2 | 4.8 | 0.00 | 0.00 | 0.00 | 63 | 1011.9 |
| 20260508045706 | 9 | 255 | 0.0 | 9.7 | 0.00 | 0.00 | 0.00 | 63 | 1011.7 |
| 20260508045204 | 9 | 174 | 3.2 | 8.0 | 0.00 | 0.00 | 0.00 | 62 | 1011.9 |
| 20260508044701 | 9 | 239 | 4.8 | 8.0 | 0.00 | 0.00 | 0.00 | 63 | 1011.8 |
| 20260508044157 | 9 | 11 | 0.0 | 9.7 | 0.00 | 0.00 | 0.00 | 63 | 1011.8 |
| 20260508043654 | 9 | 251 | 6.4 | 8.0 | 0.00 | 0.00 | 0.00 | 62 | 1011.8 |
| 20260508043152 | 9 | 263 | 6.4 | 9.7 | 0.00 | 0.00 | 0.00 | 62 | 1011.9 |
| 20260508042648 | 9 | 32 | 0.0 | 9.7 | 0.00 | 0.00 | 0.00 | 62 | 1011.9 |
| 20260508042145 | 9 | 191 | 0.0 | 6.4 | 0.00 | 0.00 | 0.00 | 62 | 1011.9 |
| 20260508041642 | 9 | 274 | 6.4 | 9.7 | 0.00 | 0.00 | 0.00 | 62 | 1012.0 |
| 20260508041139 | 9 | 252 | 6.4 | 14.5 | 0.00 | 0.00 | 0.00 | 62 | 1011.9 |
| 20260508040635 | 9 | 296 | 4.8 | 11.3 | 0.00 | 0.00 | 0.00 | 62 | 1012.0 |
| 20260508040133 | 9 | 209 | 1.6 | 9.7 | 0.00 | 0.00 | 0.00 | 62 | 1012.0 |
| 20260508035630 | 9 | 262 | 3.2 | 11.3 | 0.00 | 0.00 | 0.00 | 61 | 1012.0 |
| 20260508035127 | 9 | 232 | 4.8 | 12.9 | 0.00 | 0.00 | 0.00 | 61 | 1012.1 |
| 20260508034624 | 9 | 284 | 3.2 | 9.7 | 0.00 | 0.00 | 0.00 | 60 | 1011.9 |
| 20260508034121 | 9 | 219 | 4.8 | 9.7 | 0.00 | 0.00 | 0.00 | 60 | 1012.2 |
| 20260508033618 | 9 | 262 | 4.8 | 8.0 | 0.00 | 0.00 | 0.00 | 60 | 1012.1 |
| 20260508033116 | 9 | 239 | 3.2 | 14.5 | 0.00 | 0.00 | 0.00 | 59 | 1012.1 |
| 20260508032612 | 9 | 263 | 6.4 | 14.5 | 0.00 | 0.00 | 0.00 | 58 | 1012.1 |
| 20260508032110 | 9 | 207 | 4.8 | 19.3 | 0.00 | 0.00 | 0.00 | 57 | 1012.0 |
| 20260508031607 | 8 | 265 | 8.0 | 8.0 | 0.00 | 0.00 | 0.00 | 57 | 1012.1 |
| 20260508031103 | 8 | 227 | 0.0 | 6.4 | 0.00 | 0.00 | 0.00 | 57 | 1012.2 |
| 20260508030559 | 8 | 246 | 4.8 | 9.7 | 0.00 | 0.00 | 0.00 | 57 | 1012.1 |
| 20260508030058 | 8 | 276 | 4.8 | 9.7 | 0.00 | 0.00 | 0.00 | 59 | 1011.9 |
| 20260508025553 | 7 | 265 | 1.6 | 3.2 | 0.00 | 0.00 | 0.00 | 62 | 1012.2 |
| 20260508025051 | 7 | 265 | 3.2 | 4.8 | 0.00 | 0.00 | 0.00 | 62 | 1012.1 |
| 20260508024546 | 7 | 253 | 1.6 | 4.8 | 0.00 | 0.00 | 0.00 | 64 | 1012.1 |
| 20260508024044 | 7 | 170 | 0.0 | 3.2 | 0.00 | 0.00 | 0.00 | 67 | 1012.0 |
| 20260508023540 | 6 | 183 | 0.0 | 3.2 | 0.00 | 0.00 | 0.00 | 68 | 1012.0 |
| 20260508023038 | 6 | 135 | 0.0 | 3.2 | 0.00 | 0.00 | 0.00 | 69 | 1012.2 |
| 20260508022533 | 6 | 173 | 0.0 | 1.6 | 0.00 | 0.00 | 0.00 | 69 | 1011.9 |
| 20260508022031 | 6 | 130 | 0.0 | 3.2 | 0.00 | 0.00 | 0.00 | 70 | 1012.0 |
| 20260508021526 | 6 | 136 | 1.6 | 3.2 | 0.00 | 0.00 | 0.00 | 70 | 1011.8 |
| 20260508021022 | 6 | 154 | 1.6 | 3.2 | 0.00 | 0.00 | 0.00 | 70 | 1012.0 |
| 20260508020520 | 6 | 168 | 1.6 | 3.2 | 0.00 | 0.00 | 0.00 | 70 | 1011.8 |
| 20260508020018 | 6 | 119 | 0.0 | 3.2 | 0.00 | 0.00 | 0.00 | 69 | 1011.9 |
| 20260508015515 | 6 | 125 | 0.0 | 3.2 | 0.00 | 0.00 | 0.00 | 70 | 1011.8 |
| 20260508015012 | 6 | 147 | 3.2 | 3.2 | 0.00 | 0.00 | 0.00 | 68 | 1011.8 |
| 20260508014508 | 7 | 117 | 0.0 | 3.2 | 0.00 | 0.00 | 0.00 | 67 | 1011.8 |
| 20260508014005 | 7 | 198 | 0.0 | 3.2 | 0.00 | 0.00 | 0.00 | 67 | 1011.6 |
| 20260508013501 | 7 | 110 | 0.0 | 1.6 | 0.00 | 0.00 | 0.00 | 65 | 1011.9 |
| 20260508012958 | 7 | 113 | 1.6 | 1.6 | 0.00 | 0.00 | 0.00 | 65 | 1011.7 |
| 20260508012455 | 7 | 210 | 0.0 | 3.2 | 0.00 | 0.00 | 0.00 | 64 | 1011.7 |
| 20260508011952 | 7 | 143 | 0.0 | 4.8 | 0.00 | 0.00 | 0.00 | 63 | 1011.6 |
| 20260508011450 | 7 | 137 | 1.6 | 3.2 | 0.00 | 0.00 | 0.00 | 62 | 1011.7 |
| 20260508010947 | 7 | 124 | 3.2 | 3.2 | 0.00 | 0.00 | 0.00 | 59 | 1011.8 |
| 20260508010444 | 8 | 134 | 0.0 | 3.2 | 0.00 | 0.00 | 0.00 | 59 | 1011.6 |
| 20260508005942 | 8 | 151 | 3.2 | 4.8 | 0.00 | 0.00 | 0.00 | 58 | 1011.5 |
| 20260508005438 | 8 | 128 | 1.6 | 3.2 | 0.00 | 0.00 | 0.00 | 55 | 1011.4 |
| 20260508004935 | 8 | 102 | 0.0 | 3.2 | 0.00 | 0.00 | 0.00 | 52 | 1011.5 |
| 20260508004431 | 9 | 110 | 0.0 | 0.0 | 0.00 | 0.00 | 0.00 | 50 | 1011.5 |
| 20260508003928 | 10 | 119 | 0.0 | 1.6 | 0.00 | 0.00 | 0.00 | 48 | 1011.6 |
| 20260508003424 | 10 | 6 | 0.0 | 1.6 | 0.00 | 0.00 | 0.00 | 47 | 1011.6 |
| 20260508002922 | 10 | 275 | 3.2 | 4.8 | 0.00 | 0.00 | 0.00 | 45 | 1011.5 |
| 20260508002418 | 10 | 26 | 0.0 | 1.6 | 0.00 | 0.00 | 0.00 | 48 | 1011.5 |
| 20260508001914 | 10 | 89 | 0.0 | 1.6 | 0.00 | 0.00 | 0.00 | 45 | 1011.4 |
| 20260508001411 | 10 | 288 | 0.0 | 4.8 | 0.00 | 0.00 | 0.00 | 47 | 1011.5 |
| 20260508000907 | 11 | 74 | 3.2 | 4.8 | 0.00 | 0.00 | 0.00 | 46 | 1011.3 |
| 20260508000405 | 10 | 226 | 4.8 | 6.4 | 0.00 | 0.00 | 0.00 | 46 | 1011.3 |
| 20260507235900 | 11 | 182 | 0.0 | 6.4 | 0.00 | 0.00 | 0.00 | 43 | 1011.4 |
| 20260507235357 | 11 | 19 | 0.0 | 11.3 | 0.00 | 0.00 | 0.00 | 45 | 1011.2 |
| 20260507234854 | 11 | 314 | 0.0 | 9.7 | 0.00 | 0.00 | 0.00 | 45 | 1011.1 |
| 20260507234351 | 11 | 50 | 1.6 | 16.1 | 0.00 | 0.00 | 0.00 | 42 | 1011.2 |
| 20260507233848 | 11 | 316 | 3.2 | 11.3 | 0.00 | 0.00 | 0.00 | 42 | 1011.3 |
| 20260507233345 | 11 | 294 | 4.8 | 12.9 | 0.00 | 0.00 | 0.00 | 42 | 1011.1 |
| 20260507232843 | 11 | 210 | 4.8 | 8.0 | 0.00 | 0.00 | 0.00 | 41 | 1011.3 |
| 20260507232339 | 11 | 3 | 6.4 | 19.3 | 0.00 | 0.00 | 0.00 | 41 | 1011.2 |
| 20260507231837 | 12 | 22 | 0.0 | 11.3 | 0.00 | 0.00 | 0.00 | 43 | 1011.2 |
| 20260507231333 | 12 | 285 | 3.2 | 11.3 | 0.00 | 0.00 | 0.00 | 41 | 1011.3 |
| 20260507230829 | 12 | 250 | 11.3 | 24.1 | 0.00 | 0.00 | 0.00 | 39 | 1011.2 |
| 20260507230327 | 12 | 244 | 6.4 | 16.1 | 0.00 | 0.00 | 0.00 | 40 | 1011.2 |
| 20260507225827 | 12 | 237 | 14.5 | 17.7 | 0.00 | 0.00 | 0.00 | 39 | 1011.3 |
| 20260507225323 | 12 | 339 | 1.6 | 17.7 | 0.00 | 0.00 | 0.00 | 42 | 1011.4 |
| 20260507224819 | 12 | 306 | 4.8 | 20.9 | 0.00 | 0.00 | 0.00 | 40 | 1011.3 |
| 20260507224316 | 13 | 107 | 3.2 | 8.0 | 0.00 | 0.00 | 0.00 | 39 | 1011.3 |
| 20260507223812 | 13 | 268 | 4.8 | 8.0 | 0.00 | 0.00 | 0.00 | 37 | 1011.2 |
| 20260507223308 | 13 | 315 | 0.0 | 6.4 | 0.00 | 0.00 | 0.00 | 41 | 1011.5 |
| 20260507222806 | 13 | 234 | 0.0 | 14.5 | 0.00 | 0.00 | 0.00 | 38 | 1011.4 |
| 20260507222305 | 13 | 291 | 3.2 | 25.7 | 0.00 | 0.00 | 0.00 | 40 | 1011.0 |
| 20260507221759 | 13 | 250 | 3.2 | 11.3 | 0.00 | 0.00 | 0.00 | 38 | 1011.4 |
| 20260507221255 | 13 | 322 | 4.8 | 16.1 | 0.00 | 0.00 | 0.00 | 40 | 1011.5 |
| 20260507220751 | 13 | 275 | 4.8 | 25.7 | 0.00 | 0.00 | 0.00 | 38 | 1011.4 |
| 20260507220250 | 13 | 261 | 0.0 | 11.3 | 0.00 | 0.00 | 0.00 | 39 | 1011.4 |
| 20260507215746 | 13 | 7 | 3.2 | 16.1 | 0.00 | 0.00 | 0.00 | 38 | 1011.1 |
| 20260507215244 | 13 | 269 | 6.4 | 20.9 | 0.00 | 0.00 | 0.00 | 37 | 1011.1 |
| 20260507214740 | 13 | 239 | 3.2 | 11.3 | 0.00 | 0.00 | 0.00 | 39 | 1011.1 |
| 20260507214238 | 13 | 250 | 16.1 | 17.7 | 0.00 | 0.00 | 0.00 | 34 | 1011.2 |
| 20260507213733 | 13 | 252 | 6.4 | 22.5 | 0.00 | 0.00 | 0.00 | 38 | 1011.3 |
| 20260507213230 | 15 | 59 | 9.7 | 12.9 | 0.00 | 0.00 | 0.00 | 40 | 1011.1 |
| 20260507212726 | 15 | 4 | 4.8 | 8.0 | 0.00 | 0.00 | 0.00 | 41 | 1011.0 |
| 20260507212223 | 14 | 18 | 3.2 | 12.9 | 0.00 | 0.00 | 0.00 | 46 | 1011.1 |
| 20260507211720 | 13 | 336 | 4.8 | 33.8 | 0.00 | 0.00 | 0.00 | 46 | 1011.1 |
| 20260507211216 | 14 | 229 | 11.3 | 20.9 | 0.00 | 0.00 | 0.00 | 45 | 1011.0 |
| 20260507210713 | 14 | 219 | 14.5 | 17.7 | 0.00 | 0.00 | 0.00 | 43 | 1011.0 |
| 20260507210210 | 13 | 171 | 3.2 | 8.0 | 0.00 | 0.00 | 0.00 | 47 | 1011.0 |
| 20260507205706 | 13 | 249 | 6.4 | 12.9 | 0.00 | 0.00 | 0.00 | 44 | 1010.9 |
| 20260507205203 | 13 | 258 | 17.7 | 17.7 | 0.00 | 0.00 | 0.00 | 47 | 1010.5 |
| 20260507204659 | 13 | 338 | 3.2 | 12.9 | 0.00 | 0.00 | 0.00 | 47 | 1010.7 |
| 20260507204157 | 12 | 299 | 4.8 | 8.0 | 0.00 | 0.00 | 0.00 | 52 | 1010.7 |
| 20260507203655 | 12 | 47 | 4.8 | 8.0 | 0.00 | 0.00 | 0.00 | 52 | 1010.5 |
| 20260507203152 | 12 | 227 | 0.0 | 9.7 | 0.00 | 0.00 | 0.00 | 52 | 1010.9 |
| 20260507202647 | 13 | 341 | 4.8 | 11.3 | 0.00 | 0.00 | 0.00 | 48 | 1010.9 |
| 20260507202144 | 14 | 65 | 4.8 | 11.3 | 0.00 | 0.00 | 0.00 | 49 | 1010.7 |
| 20260507201639 | 12 | 33 | 4.8 | 14.5 | 0.00 | 0.00 | 0.00 | 52 | 1010.9 |
| 20260507201136 | 12 | 7 | 8.0 | 11.3 | 0.00 | 0.00 | 0.00 | 51 | 1010.8 |
| 20260507200632 | 13 | 74 | 1.6 | 9.7 | 0.00 | 0.00 | 0.00 | 52 | 1010.4 |
| 20260507200128 | 14 | 235 | 8.0 | 16.1 | 0.00 | 0.00 | 0.00 | 45 | 1010.3 |
| 20260507195625 | 13 | 207 | 3.2 | 17.7 | 0.00 | 0.00 | 0.00 | 50 | 1010.5 |
| 20260507195123 | 13 | 296 | 17.7 | 17.7 | 0.00 | 0.00 | 0.00 | 45 | 1010.5 |
| 20260507194619 | 12 | 226 | 3.2 | 17.7 | 0.00 | 0.00 | 0.00 | 45 | 1010.5 |
| 20260507194115 | 12 | 269 | 19.3 | 24.1 | 0.00 | 0.00 | 0.00 | 43 | 1010.8 |
| 20260507193612 | 13 | 181 | 8.0 | 22.5 | 0.00 | 0.00 | 0.00 | 42 | 1010.8 |
| 20260507193109 | 13 | 212 | 3.2 | 12.9 | 0.00 | 0.00 | 0.00 | 47 | 1010.9 |
| 20260507192605 | 13 | 227 | 4.8 | 24.1 | 0.00 | 0.00 | 0.00 | 45 | 1010.9 |
| 20260507192102 | 13 | 279 | 8.0 | 32.2 | 0.00 | 0.00 | 0.00 | 44 | 1010.9 |
| 20260507191557 | 13 | 239 | 8.0 | 16.1 | 0.00 | 0.00 | 0.00 | 43 | 1010.9 |
| 20260507191055 | 13 | 250 | 12.9 | 14.5 | 0.00 | 0.00 | 0.00 | 47 | 1010.7 |
| 20260507190552 | 13 | 111 | 0.0 | 9.7 | 0.00 | 0.00 | 0.00 | 50 | 1010.8 |
| 20260507190051 | 12 | 150 | 4.8 | 14.5 | 0.00 | 0.00 | 0.00 | 49 | 1010.9 |
| 20260507185549 | 13 | 346 | 3.2 | 12.9 | 0.00 | 0.00 | 0.00 | 47 | 1010.8 |
| 20260507185045 | 15 | 46 | 6.4 | 8.0 | 0.00 | 0.00 | 0.00 | 49 | 1010.9 |
| 20260507184543 | 13 | 251 | 3.2 | 8.0 | 0.00 | 0.00 | 0.00 | 48 | 1010.7 |
| 20260507184041 | 13 | 218 | 3.2 | 14.5 | 0.00 | 0.00 | 0.00 | 47 | 1010.9 |
| 20260507183536 | 12 | 40 | 3.2 | 22.5 | 0.00 | 0.00 | 0.00 | 49 | 1011.1 |
| 20260507183034 | 13 | 241 | 17.7 | 30.6 | 0.00 | 0.00 | 0.00 | 48 | 1010.9 |
| 20260507182530 | 13 | 244 | 3.2 | 19.3 | 0.00 | 0.00 | 0.00 | 48 | 1011.1 |
| 20260507182026 | 13 | 130 | 4.8 | 14.5 | 0.00 | 0.00 | 0.00 | 48 | 1011.2 |
| 20260507181523 | 13 | 263 | 4.8 | 14.5 | 0.00 | 0.00 | 0.00 | 52 | 1011.2 |
| 20260507181019 | 13 | 299 | 3.2 | 12.9 | 0.00 | 0.00 | 0.00 | 50 | 1011.2 |
| 20260507180516 | 15 | 42 | 6.4 | 20.9 | 0.00 | 0.00 | 0.00 | 47 | 1010.9 |
| 20260507180013 | 14 | 85 | 4.8 | 9.7 | 0.00 | 0.00 | 0.00 | 50 | 1011.0 |
| 20260507175509 | 13 | 78 | 3.2 | 8.0 | 0.00 | 0.00 | 0.00 | 51 | 1011.1 |
| 20260507175007 | 12 | 234 | 3.2 | 12.9 | 0.00 | 0.00 | 0.00 | 50 | 1011.0 |
| 20260507174504 | 12 | 273 | 1.6 | 24.1 | 0.00 | 0.00 | 0.00 | 47 | 1010.9 |
| 20260507174001 | 14 | 240 | 6.4 | 14.5 | 0.00 | 0.00 | 0.00 | 46 | 1011.2 |
| 20260507173458 | 13 | 248 | 3.2 | 12.9 | 0.00 | 0.00 | 0.00 | 48 | 1010.9 |
| 20260507172955 | 13 | 208 | 1.6 | 16.1 | 0.00 | 0.00 | 0.00 | 50 | 1011.1 |
| 20260507172451 | 13 | 120 | 3.2 | 27.4 | 0.00 | 0.00 | 0.00 | 47 | 1011.2 |
| 20260507171948 | 12 | 239 | 16.1 | 22.5 | 0.00 | 0.00 | 0.00 | 45 | 1011.2 |
| 20260507171443 | 13 | 240 | 14.5 | 20.9 | 0.00 | 0.00 | 0.00 | 45 | 1010.9 |
| 20260507170941 | 13 | 27 | 3.2 | 14.5 | 0.00 | 0.00 | 0.00 | 50 | 1011.2 |
| 20260507170437 | 14 | 127 | 1.6 | 8.0 | 0.00 | 0.00 | 0.00 | 45 | 1011.2 |
| 20260507165934 | 13 | 53 | 8.0 | 11.3 | 0.00 | 0.00 | 0.00 | 48 | 1011.3 |
| 20260507165430 | 13 | 57 | 8.0 | 14.5 | 0.00 | 0.00 | 0.00 | 49 | 1011.2 |
| 20260507164926 | 13 | 173 | 8.0 | 17.7 | 0.00 | 0.00 | 0.00 | 46 | 1011.1 |
| 20260507164423 | 12 | 228 | 4.8 | 9.7 | 0.00 | 0.00 | 0.00 | 49 | 1011.3 |
| 20260507163920 | 12 | 45 | 11.3 | 17.7 | 0.00 | 0.00 | 0.00 | 51 | 1011.2 |
| 20260507163418 | 12 | 16 | 4.8 | 11.3 | 0.00 | 0.00 | 0.00 | 50 | 1011.1 |
| 20260507162914 | 12 | 15 | 3.2 | 12.9 | 0.00 | 0.00 | 0.00 | 49 | 1011.1 |
| 20260507162409 | 13 | 58 | 6.4 | 11.3 | 0.00 | 0.00 | 0.00 | 49 | 1011.2 |
| 20260507161907 | 12 | 337 | 3.2 | 11.3 | 0.00 | 0.00 | 0.00 | 48 | 1011.7 |
| 20260507161403 | 12 | 260 | 3.2 | 9.7 | 0.00 | 0.00 | 0.00 | 44 | 1011.2 |
| 20260507160900 | 12 | 256 | 8.0 | 12.9 | 0.00 | 0.00 | 0.00 | 52 | 1011.5 |
| 20260507160355 | 13 | 225 | 1.6 | 6.4 | 0.00 | 0.00 | 0.00 | 50 | 1011.5 |
| 20260507155852 | 12 | 87 | 0.0 | 14.5 | 0.00 | 0.00 | 0.00 | 49 | 1011.3 |
| 20260507155348 | 12 | 255 | 3.2 | 11.3 | 0.00 | 0.00 | 0.00 | 45 | 1011.3 |
| 20260507154845 | 12 | 254 | 6.4 | 17.7 | 0.00 | 0.00 | 0.00 | 45 | 1011.0 |
| 20260507154342 | 13 | 85 | 4.8 | 8.0 | 0.00 | 0.00 | 0.00 | 48 | 1011.3 |
| 20260507153839 | 13 | 229 | 6.4 | 17.7 | 0.00 | 0.00 | 0.00 | 43 | 1011.2 |
| 20260507153335 | 13 | 236 | 3.2 | 20.9 | 0.00 | 0.00 | 0.00 | 48 | 1011.4 |
| 20260507152832 | 13 | 214 | 6.4 | 16.1 | 0.00 | 0.00 | 0.00 | 46 | 1011.1 |
| 20260507152328 | 15 | 56 | 3.2 | 11.3 | 0.00 | 0.00 | 0.00 | 46 | 1011.4 |
| 20260507151824 | 13 | 197 | 3.2 | 9.7 | 0.00 | 0.00 | 0.00 | 46 | 1011.5 |
| 20260507151321 | 12 | 239 | 9.7 | 19.3 | 0.00 | 0.00 | 0.00 | 46 | 1011.5 |
| 20260507150818 | 13 | 143 | 3.2 | 11.3 | 0.00 | 0.00 | 0.00 | 51 | 1011.5 |
| 20260507150314 | 12 | 254 | 14.5 | 19.3 | 0.00 | 0.00 | 0.00 | 47 | 1011.7 |
| 20260507145810 | 13 | 117 | 4.8 | 8.0 | 0.00 | 0.00 | 0.00 | 47 | 1011.5 |
| 20260507145307 | 13 | 311 | 0.0 | 9.7 | 0.00 | 0.00 | 0.00 | 49 | 1011.5 |
| 20260507144804 | 13 | 105 | 0.0 | 6.4 | 0.00 | 0.00 | 0.00 | 51 | 1011.5 |
| 20260507144302 | 12 | 235 | 8.0 | 14.5 | 0.00 | 0.00 | 0.00 | 49 | 1011.6 |
| 20260507143758 | 12 | 223 | 3.2 | 12.9 | 0.00 | 0.00 | 0.00 | 52 | 1011.6 |
| 20260507143255 | 13 | 208 | 3.2 | 8.0 | 0.00 | 0.00 | 0.00 | 48 | 1011.2 |
| 20260507142751 | 13 | 289 | 3.2 | 9.7 | 0.00 | 0.00 | 0.00 | 51 | 1011.4 |
| 20260507142248 | 12 | 307 | 3.2 | 17.7 | 0.00 | 0.00 | 0.00 | 49 | 1011.6 |
| 20260507141744 | 12 | 28 | 3.2 | 4.8 | 0.00 | 0.00 | 0.00 | 56 | 1011.3 |
| 20260507141242 | 12 | 261 | 6.4 | 9.7 | 0.00 | 0.00 | 0.00 | 58 | 1011.5 |
| 20260507140737 | 12 | 267 | 3.2 | 8.0 | 0.00 | 0.00 | 0.00 | 55 | 1011.5 |
| 20260507140235 | 12 | 183 | 0.0 | 8.0 | 0.00 | 0.00 | 0.00 | 58 | 1011.7 |
| 20260507135732 | 12 | 314 | 3.2 | 9.7 | 0.00 | 0.00 | 0.00 | 58 | 1011.7 |
| 20260507135230 | 12 | 117 | 3.2 | 6.4 | 0.00 | 0.00 | 0.00 | 56 | 1011.8 |
| 20260507134725 | 12 | 68 | 3.2 | 9.7 | 0.00 | 0.00 | 0.00 | 57 | 1012.0 |
| 20260507134222 | 11 | 148 | 0.0 | 11.3 | 0.00 | 0.00 | 0.00 | 63 | 1011.9 |
| 20260507133718 | 11 | 36 | 1.6 | 6.4 | 0.00 | 0.00 | 0.00 | 61 | 1012.0 |
| 20260507133215 | 11 | 232 | 6.4 | 11.3 | 0.00 | 0.00 | 0.00 | 61 | 1011.9 |
| 20260507132712 | 11 | 245 | 4.8 | 14.5 | 0.00 | 0.00 | 0.00 | 63 | 1011.8 |
| 20260507132209 | 10 | 219 | 6.4 | 14.5 | 0.00 | 0.00 | 0.00 | 62 | 1012.0 |
| 20260507131706 | 10 | 229 | 4.8 | 8.0 | 0.00 | 0.00 | 0.00 | 63 | 1011.8 |
| 20260507131203 | 10 | 255 | 9.7 | 9.7 | 0.00 | 0.00 | 0.00 | 63 | 1012.1 |
| 20260507130700 | 10 | 241 | 6.4 | 9.7 | 0.00 | 0.00 | 0.00 | 64 | 1012.0 |
| 20260507130157 | 10 | 244 | 4.8 | 11.3 | 0.00 | 0.00 | 0.00 | 66 | 1012.0 |
| 20260507125656 | 9 | 276 | 9.7 | 11.3 | 0.00 | 0.00 | 0.00 | 66 | 1012.0 |
| 20260507125153 | 9 | 238 | 4.8 | 11.3 | 0.00 | 0.00 | 0.00 | 68 | 1012.0 |
| 20260507124649 | 9 | 240 | 8.0 | 11.3 | 0.00 | 0.00 | 0.00 | 67 | 1012.1 |
| 20260507124147 | 8 | 261 | 3.2 | 14.5 | 0.00 | 0.00 | 0.00 | 68 | 1011.9 |
| 20260507123645 | 8 | 241 | 4.8 | 11.3 | 0.00 | 0.00 | 0.00 | 70 | 1011.9 |
| 20260507123142 | 8 | 230 | 4.8 | 8.0 | 0.00 | 0.00 | 0.00 | 70 | 1012.1 |
| 20260507122637 | 8 | 263 | 8.0 | 14.5 | 0.00 | 0.00 | 0.00 | 70 | 1012.0 |
| 20260507122133 | 8 | 245 | 4.8 | 12.9 | 0.00 | 0.00 | 0.00 | 71 | 1012.0 |
| 20260507121629 | 8 | 240 | 9.7 | 20.9 | 0.00 | 0.00 | 0.00 | 71 | 1011.8 |
| 20260507121125 | 8 | 251 | 9.7 | 16.1 | 0.00 | 0.00 | 0.00 | 71 | 1011.9 |
| 20260507120622 | 8 | 229 | 6.4 | 12.9 | 0.00 | 0.00 | 0.00 | 71 | 1012.0 |
| 20260507120118 | 8 | 303 | 1.6 | 11.3 | 0.00 | 0.00 | 0.00 | 71 | 1012.0 |
| 20260507115615 | 8 | 299 | 3.2 | 11.3 | 0.00 | 0.00 | 0.00 | 71 | 1011.7 |
| 20260507115111 | 8 | 256 | 3.2 | 11.3 | 0.00 | 0.00 | 0.00 | 71 | 1011.8 |
| 20260507114606 | 8 | 289 | 6.4 | 9.7 | 0.00 | 0.00 | 0.00 | 71 | 1011.8 |
| 20260507114104 | 7 | 198 | 3.2 | 14.5 | 0.00 | 0.00 | 0.00 | 72 | 1011.6 |
| 20260507113601 | 7 | 231 | 4.8 | 8.0 | 0.00 | 0.00 | 0.00 | 72 | 1011.6 |
| 20260507113058 | 7 | 305 | 4.8 | 11.3 | 0.00 | 0.00 | 0.00 | 73 | 1011.7 |
| 20260507112556 | 7 | 225 | 1.6 | 8.0 | 0.00 | 0.00 | 0.00 | 74 | 1011.8 |
| 20260507112052 | 6 | 218 | 3.2 | 4.8 | 0.00 | 0.00 | 0.00 | 74 | 1011.6 |
| 20260507111549 | 6 | 249 | 4.8 | 6.4 | 0.00 | 0.00 | 0.00 | 75 | 1011.6 |
| 20260507111046 | 6 | 245 | 3.2 | 4.8 | 0.00 | 0.00 | 0.00 | 76 | 1011.6 |
| 20260507110542 | 6 | 216 | 1.6 | 4.8 | 0.00 | 0.00 | 0.00 | 76 | 1011.7 |
| 20260507110039 | 6 | 249 | 1.6 | 3.2 | 0.00 | 0.00 | 0.00 | 75 | 1011.8 |
| 20260507105536 | 6 | 266 | 3.2 | 4.8 | 0.00 | 0.00 | 0.00 | 75 | 1011.7 |
| 20260507105032 | 6 | 263 | 4.8 | 8.0 | 0.00 | 0.00 | 0.00 | 75 | 1011.4 |
| 20260507104530 | 6 | 285 | 1.6 | 4.8 | 0.00 | 0.00 | 0.00 | 75 | 1011.3 |
| 20260507104026 | 6 | 234 | 1.6 | 3.2 | 0.00 | 0.00 | 0.00 | 75 | 1011.4 |
| 20260507103522 | 6 | 200 | 0.0 | 4.8 | 0.00 | 0.00 | 0.00 | 75 | 1011.4 |
| 20260507103019 | 6 | 252 | 3.2 | 4.8 | 0.00 | 0.00 | 0.00 | 74 | 1011.3 |
| 20260507102516 | 6 | 271 | 4.8 | 8.0 | 0.00 | 0.00 | 0.00 | 74 | 1011.3 |
| 20260507102012 | 6 | 112 | 1.6 | 4.8 | 0.00 | 0.00 | 0.00 | 74 | 1011.1 |
| 20260507101507 | 6 | 286 | 0.0 | 4.8 | 0.00 | 0.00 | 0.00 | 74 | 1011.2 |
| 20260507101004 | 6 | 0 | 0.0 | 6.4 | 0.00 | 0.00 | 0.00 | 74 | 1011.3 |
| 20260507100501 | 6 | 266 | 1.6 | 6.4 | 0.00 | 0.00 | 0.00 | 74 | 1011.4 |
| 20260507095959 | 6 | 211 | 0.0 | 6.4 | 0.00 | 0.00 | 0.00 | 74 | 1011.1 |
| 20260507095457 | 6 | 260 | 0.0 | 4.8 | 0.00 | 0.00 | 0.00 | 74 | 1011.1 |
| 20260507094953 | 6 | 259 | 3.2 | 6.4 | 0.00 | 0.00 | 0.00 | 73 | 1011.1 |
| 20260507094449 | 6 | 268 | 3.2 | 6.4 | 0.00 | 0.00 | 0.00 | 73 | 1011.3 |
| 20260507093947 | 6 | 262 | 3.2 | 8.0 | 0.00 | 0.00 | 0.00 | 73 | 1011.3 |
| 20260507093444 | 6 | 156 | 1.6 | 4.8 | 0.00 | 0.00 | 0.00 | 73 | 1011.1 |
| 20260507092943 | 6 | 186 | 3.2 | 8.0 | 0.00 | 0.00 | 0.00 | 73 | 1011.3 |
| 20260507092438 | 6 | 157 | 4.8 | 6.4 | 0.00 | 0.00 | 0.00 | 73 | 1011.6 |
| 20260507091935 | 6 | 122 | 0.0 | 4.8 | 0.00 | 0.00 | 0.00 | 72 | 1011.3 |
| 20260507091432 | 6 | 194 | 1.6 | 6.4 | 0.00 | 0.00 | 0.00 | 72 | 1011.3 |
| 20260507090927 | 6 | 227 | 0.0 | 4.8 | 0.00 | 0.00 | 0.00 | 72 | 1011.3 |
| 20260507090424 | 6 | 156 | 0.0 | 9.7 | 0.00 | 0.00 | 0.00 | 72 | 1011.5 |
| 20260507085920 | 6 | 212 | 0.0 | 6.4 | 0.00 | 0.00 | 0.00 | 72 | 1011.4 |
| 20260507085418 | 7 | 144 | 1.6 | 8.0 | 0.00 | 0.00 | 0.00 | 72 | 1011.6 |
| 20260507084915 | 7 | 189 | 1.6 | 8.0 | 0.00 | 0.00 | 0.00 | 72 | 1011.5 |
| 20260507084412 | 7 | 265 | 1.6 | 4.8 | 0.00 | 0.00 | 0.00 | 72 | 1011.3 |
| 20260507083909 | 7 | 224 | 1.6 | 3.2 | 0.00 | 0.00 | 0.00 | 72 | 1011.4 |
| 20260507083405 | 7 | 258 | 0.0 | 3.2 | 0.00 | 0.00 | 0.00 | 72 | 1011.5 |
| 20260507082901 | 7 | 231 | 1.6 | 4.8 | 0.00 | 0.00 | 0.00 | 71 | 1011.7 |
| 20260507082357 | 7 | 130 | 0.0 | 6.4 | 0.00 | 0.00 | 0.00 | 71 | 1011.6 |
| 20260507081855 | 7 | 283 | 0.0 | 6.4 | 0.00 | 0.00 | 0.00 | 71 | 1011.3 |
| 20260507081350 | 7 | 244 | 1.6 | 8.0 | 0.00 | 0.00 | 0.00 | 70 | 1011.4 |
| 20260507080847 | 7 | 230 | 1.6 | 3.2 | 0.00 | 0.00 | 0.00 | 71 | 1011.5 |
| 20260507080343 | 7 | 227 | 0.0 | 6.4 | 0.00 | 0.00 | 0.00 | 70 | 1011.6 |
| 20260507075839 | 7 | 240 | 3.2 | 6.4 | 0.00 | 0.00 | 0.00 | 71 | 1011.6 |